When you browse on this site, cookies collect data to enhance your experience and personalize the content and advertising you see.
Visit our Privacy Policy to learn more. By continuing to use the site, you agree to this use of cookies and data.
  • Em Portugal
  • Lista de países
  • Para 7 dias
  • Temperatura da água
  • Mapas de satélite
  • Mapa do tempo
  • Widgets de tempo
  • user-avatar
    Iniciar Sessão

    Previsão horária em Pamporovo

    Hoje, 21 Julho, Domingo

    Tempo Temperatura Precipitação Vento Pressão Humidade
    00:00 +11°C° 0 mm 1 m/s 628 mmHg 79%
    01:00 +10°C° 0 mm 1 m/s 628 mmHg 79%
    02:00 +10°C° 0 mm 1 m/s 628 mmHg 81%
    03:00 +10°C° 0 mm 1 m/s 627 mmHg 81%
    04:00 +10°C° 0 mm 1 m/s 627 mmHg 81%
    05:00 +10°C° 0 mm 1 m/s 627 mmHg 81%
    06:00 +12°C° 0 mm 1 m/s 628 mmHg 75%
    07:00 +15°C° 0 mm 1 m/s 629 mmHg 69%
    08:00 +18°C° 0 mm 1 m/s 631 mmHg 62%
    09:00 +20°C° 0 mm 1 m/s 631 mmHg 55%
    10:00 +21°C° 0 mm 1 m/s 632 mmHg 49%
    11:00 +21°C° 0 mm 2 m/s 632 mmHg 43%
    12:00 +21°C° 0 mm 2 m/s 632 mmHg 43%
    13:00 +21°C° 0 mm 2 m/s 632 mmHg 44%
    14:00 +23°C° 0 mm 2 m/s 632 mmHg 44%
    15:00 +21°C° 0 mm 2 m/s 631 mmHg 46%
    16:00 +21°C° 0 mm 2 m/s 631 mmHg 48%
    17:00 +20°C° 0 mm 2 m/s 631 mmHg 50%
    18:00 +18°C° 0 mm 2 m/s 630 mmHg 59%
    19:00 +16°C° 0 mm 1 m/s 629 mmHg 67%
    20:00 +14°C° 0 mm 1 m/s 628 mmHg 75%
    21:00 +13°C° 0 mm 1 m/s 628 mmHg 76%
    22:00 +13°C° 0 mm 1 m/s 628 mmHg 77%
    23:00 +12°C° 0 mm 1 m/s 629 mmHg 77%

    Amanhã, 22 Julho, Segunda-feira

    Tempo Temperatura Precipitação Vento Pressão Humidade
    00:00 +12°C° 0 mm 1 m/s 628 mmHg 78%
    01:00 +12°C° 0 mm 1 m/s 628 mmHg 79%
    02:00 +12°C° 0 mm 1 m/s 628 mmHg 80%
    03:00 +11°C° 0 mm 1 m/s 628 mmHg 81%
    04:00 +11°C° 0 mm 1 m/s 628 mmHg 82%
    05:00 +11°C° 0 mm 1 m/s 628 mmHg 83%
    06:00 +14°C° 0 mm 1 m/s 629 mmHg 74%
    07:00 +16°C° 0 mm 1 m/s 630 mmHg 66%
    08:00 +19°C° 0 mm 1 m/s 631 mmHg 58%
    09:00 +19°C° 0 mm 2 m/s 631 mmHg 53%
    10:00 +21°C° 0 mm 2 m/s 632 mmHg 49%
    11:00 +23°C° 0 mm 2 m/s 632 mmHg 44%
    12:00 +23°C° 0 mm 2 m/s 632 mmHg 44%
    13:00 +22°C° 0 mm 3 m/s 631 mmHg 44%
    14:00 +22°C° 0 mm 3 m/s 631 mmHg 45%
    15:00 +23°C° 0 mm 2 m/s 631 mmHg 46%
    16:00 +23°C° 0 mm 2 m/s 630 mmHg 47%
    17:00 +21°C° 0 mm 2 m/s 630 mmHg 48%
    18:00 +19°C° 0 mm 2 m/s 629 mmHg 56%
    19:00 +18°C° 0 mm 1 m/s 628 mmHg 64%
    20:00 +15°C° 0 mm 1 m/s 627 mmHg 72%
    21:00 +15°C° 0 mm 1 m/s 628 mmHg 72%
    22:00 +15°C° 0 mm 1 m/s 628 mmHg 71%
    23:00 +14°C° 0 mm 1 m/s 628 mmHg 70%

    Depois de amanhã, 23 Julho, Terça-feira

    Tempo Temperatura Precipitação Vento Pressão Humidade
    00:00 +14°C° 0 mm 1 m/s 627 mmHg 74%
    01:00 +13°C° 0 mm 1 m/s 627 mmHg 78%
    02:00 +13°C° 0 mm 1 m/s 626 mmHg 82%
    03:00 +12°C° 0.1 mm 1 m/s 626 mmHg 84%
    04:00 +12°C° 0.1 mm 1 m/s 626 mmHg 86%
    05:00 +12°C° 0.1 mm 1 m/s 626 mmHg 88%
    06:00 +13°C° 0.1 mm 1 m/s 627 mmHg 83%
    07:00 +15°C° 0.1 mm 1 m/s 627 mmHg 78%
    08:00 +18°C° 0.1 mm 1 m/s 628 mmHg 73%
    09:00 +19°C° 0.5 mm 1 m/s 628 mmHg 69%
    10:00 +19°C° 0.5 mm 2 m/s 628 mmHg 65%
    11:00 +20°C° 0.5 mm 2 m/s 629 mmHg 61%
    12:00 +20°C° 0.7 mm 2 m/s 628 mmHg 60%
    13:00 +20°C° 0.7 mm 2 m/s 628 mmHg 60%
    14:00 +20°C° 0.7 mm 2 m/s 628 mmHg 59%
    15:00 +20°C° 0.3 mm 2 m/s 627 mmHg 60%
    16:00 +19°C° 0.3 mm 3 m/s 627 mmHg 61%
    17:00 +19°C° 0.3 mm 3 m/s 627 mmHg 61%
    18:00 +17°C° 0.3 mm 2 m/s 626 mmHg 72%
    19:00 +15°C° 0.3 mm 2 m/s 626 mmHg 82%
    20:00 +12°C° 0.3 mm 2 m/s 625 mmHg 93%
    21:00 +12°C° 0 mm 1 m/s 625 mmHg 92%
    22:00 +12°C° 0 mm 1 m/s 625 mmHg 92%
    23:00 +11°C° 0 mm 1 m/s 625 mmHg 92%

    24 Julho, Quarta-feira

    Tempo Temperatura Precipitação Vento Pressão Humidade
    00:00 +11°C° 0 mm 1 m/s 625 mmHg 92%
    01:00 +10°C° 0 mm 1 m/s 625 mmHg 91%
    02:00 +10°C° 0 mm 1 m/s 624 mmHg 91%
    03:00 +10°C° 0 mm 1 m/s 624 mmHg 92%
    04:00 +10°C° 0 mm 1 m/s 625 mmHg 92%
    05:00 +10°C° 0 mm 1 m/s 625 mmHg 92%
    06:00 +11°C° 0.1 mm 1 m/s 625 mmHg 88%
    07:00 +13°C° 0.1 mm 1 m/s 626 mmHg 84%
    08:00 +14°C° 0.1 mm 2 m/s 627 mmHg 79%
    09:00 +15°C° 0.2 mm 2 m/s 627 mmHg 74%
    10:00 +16°C° 0.2 mm 2 m/s 628 mmHg 69%
    11:00 +17°C° 0.2 mm 2 m/s 628 mmHg 64%
    12:00 +18°C° 0.2 mm 2 m/s 628 mmHg 62%
    13:00 +18°C° 0.2 mm 2 m/s 628 mmHg 59%
    14:00 +19°C° 0.2 mm 2 m/s 628 mmHg 57%
    15:00 +18°C° 0.2 mm 2 m/s 628 mmHg 59%
    16:00 +18°C° 0.2 mm 2 m/s 628 mmHg 60%
    17:00 +18°C° 0.2 mm 2 m/s 627 mmHg 62%
    18:00 +16°C° 0.1 mm 2 m/s 627 mmHg 71%
    19:00 +14°C° 0.1 mm 1 m/s 626 mmHg 79%
    20:00 +12°C° 0.1 mm 1 m/s 625 mmHg 87%
    21:00 +11°C° 0 mm 1 m/s 625 mmHg 88%
    22:00 +11°C° 0 mm 1 m/s 626 mmHg 88%
    23:00 +10°C° 0 mm 1 m/s 626 mmHg 89%

    25 Julho, Quinta-feira

    Tempo Temperatura Precipitação Vento Pressão Humidade
    00:00 +10°C° 0 mm 1 m/s 625 mmHg 89%
    01:00 +10°C° 0 mm 1 m/s 625 mmHg 89%
    02:00 +10°C° 0 mm 1 m/s 625 mmHg 89%
    03:00 +10°C° 0 mm 1 m/s 625 mmHg 90%
    04:00 +9°C° 0 mm 1 m/s 625 mmHg 90%
    05:00 +9°C° 0 mm 1 m/s 625 mmHg 90%
    06:00 +12°C° 0 mm 1 m/s 626 mmHg 82%
    07:00 +14°C° 0 mm 1 m/s 627 mmHg 74%
    08:00 +16°C° 0 mm 1 m/s 628 mmHg 66%
    09:00 +18°C° 0 mm 1 m/s 629 mmHg 59%
    10:00 +19°C° 0 mm 2 m/s 629 mmHg 53%
    11:00 +20°C° 0 mm 2 m/s 630 mmHg 47%
    12:00 +20°C° 0 mm 2 m/s 630 mmHg 49%
    13:00 +20°C° 0 mm 2 m/s 629 mmHg 51%
    14:00 +20°C° 0 mm 2 m/s 629 mmHg 53%
    15:00 +19°C° 0 mm 2 m/s 629 mmHg 55%
    16:00 +19°C° 0 mm 2 m/s 629 mmHg 56%
    17:00 +19°C° 0 mm 2 m/s 628 mmHg 58%
    18:00 +18°C° 0.1 mm 1 m/s 628 mmHg 65%
    19:00 +15°C° 0.1 mm 1 m/s 627 mmHg 73%
    20:00 +13°C° 0.1 mm 1 m/s 626 mmHg 81%
    21:00 +13°C° 0 mm 1 m/s 626 mmHg 82%
    22:00 +12°C° 0 mm 1 m/s 626 mmHg 83%
    23:00 +11°C° 0 mm 1 m/s 626 mmHg 84%

    26 Julho, Sexta-feira

    Tempo Temperatura Precipitação Vento Pressão Humidade
    00:00 +11°C° 0 mm 1 m/s 626 mmHg 84%
    01:00 +11°C° 0 mm 1 m/s 626 mmHg 85%
    02:00 +11°C° 0 mm 1 m/s 626 mmHg 85%
    03:00 +11°C° 0 mm 1 m/s 626 mmHg 86%
    04:00 +10°C° 0 mm 1 m/s 626 mmHg 86%
    05:00 +10°C° 0 mm 1 m/s 626 mmHg 87%
    06:00 +13°C° 0 mm 1 m/s 627 mmHg 79%
    07:00 +15°C° 0 mm 1 m/s 628 mmHg 72%
    08:00 +18°C° 0 mm 1 m/s 629 mmHg 65%
    09:00 +19°C° 0 mm 1 m/s 629 mmHg 58%
    10:00 +21°C° 0 mm 1 m/s 629 mmHg 52%
    11:00 +21°C° 0 mm 2 m/s 630 mmHg 45%
    12:00 +21°C° 0 mm 2 m/s 630 mmHg 46%
    13:00 +21°C° 0 mm 2 m/s 629 mmHg 47%
    14:00 +21°C° 0 mm 2 m/s 629 mmHg 48%
    15:00 +21°C° 0 mm 1 m/s 628 mmHg 53%
    16:00 +21°C° 0 mm 1 m/s 628 mmHg 57%
    17:00 +20°C° 0 mm 1 m/s 627 mmHg 62%
    18:00 +18°C° 0 mm 1 m/s 627 mmHg 67%
    19:00 +15°C° 0 mm 1 m/s 626 mmHg 72%
    20:00 +13°C° 0 mm 0 m/s 625 mmHg 76%
    21:00 +13°C° 0 mm 1 m/s 625 mmHg 78%
    22:00 +12°C° 0 mm 1 m/s 625 mmHg 79%
    23:00 +12°C° 0 mm 1 m/s 625 mmHg 80%
    Mostrar mais